Location: Unspecified
(0.0000°N, 0.0000°E)
Time: 12:11:21
(UTC+02:00)

Amateur Radio Satellites - All Passes

Search period start: 29 July 2016 11:41
Search period end: 30 July 2016 11:41
Location: Unspecified, 0.0000°N, 0.0000°E

Satellite Date Start Highest point End Downlink Frequencies (MHz)
Time Altitude Azimuth
M-CUBED/EXP-1 PRIME 29 Jul 11:46:18 11:50:53 71° 285° (WNW) 11:55:13 437.505
Cosmos 2491 29 Jul 11:53:23 11:59:54 23° 267° (W) 12:06:29 435.465 / 435.565
JUGNU 29 Jul 11:57:19 12:02:24 30° 199° (SSW) 12:07:29 437.505
FUNcube-1 29 Jul 12:01:15 12:02:47 12° 282° (WNW) 12:04:20 145.935
AUBIESAT-1 29 Jul 12:10:51 12:15:05 40° 286° (WNW) 12:19:06 437.475
AO-85 29 Jul 12:12:30 12:15:48 17° 112° (ESE) 12:19:10 145.980
DELFI C3 29 Jul 12:13:54 12:16:26 16° 281° (WNW) 12:18:58 145.870
POPSAT HIP 1 29 Jul 12:14:55 12:15:56 11° 78° (ENE) 12:16:57 437.405
TIGRISAT 29 Jul 12:16:54 12:21:18 56° 258° (WSW) 12:25:47 435.000
SRMSAT 29 Jul 12:28:00 12:33:56 80° 201° (SSW) 12:39:53 437.500
ESTCUBE 1 29 Jul 12:31:52 12:35:43 28° 102° (ESE) 12:39:34 437.505/2401.250
QB50P2 29 Jul 12:33:56 12:37:23 24° 78° (ENE) 12:40:50 145.880/145.840
UNISAT 6 29 Jul 12:34:28 12:38:24 29° 258° (WSW) 12:42:22 437.425
CUBEBUG 1 29 Jul 12:35:50 12:38:54 19° 102° (ESE) 12:42:00 437.445
POLYITAN 1 29 Jul 12:36:32 12:40:01 25° 78° (ENE) 12:43:30 437.675
VELOX 1 29 Jul 12:40:21 12:43:20 18° 102° (ESE) 12:46:21 145.980
PHONESAT 2.4 29 Jul 12:55:41 12:57:40 16° 138° (SE) 12:59:39 2401.200-2431.200
HUMSAT D 29 Jul 12:59:51 13:00:38 10° 282° (WNW) 13:01:26 437.325/437.525
50 SAT 29 Jul 13:00:34 13:03:50 33° 102° (ESE) 13:07:07 437.505
JAS-2 29 Jul 13:10:00 13:15:12 23° 80° (E) 13:19:57 435.910
Cosmos 2504 29 Jul 13:15:09 13:21:15 22° 274° (W) 13:27:31 435.465 / 435.565
DX 1 29 Jul 13:16:21 13:20:25 38° 102° (ESE) 13:24:29 434.975-435.025
NANOSAT C BR1 29 Jul 13:16:52 13:21:05 86° 259° (W) 13:25:18 145.865
DUCHIFAT 1 29 Jul 13:20:05 13:24:16 84° 256° (WSW) 13:28:29 145.980
AISAT 29 Jul 13:23:54 13:28:22 82° 102° (ESE) 13:32:51 437.250
UKube-1 29 Jul 13:25:55 13:29:56 37° 102° (ESE) 13:33:57 .
BUGSAT 1 29 Jul 13:26:06 13:29:50 36° 78° (ENE) 13:33:33 437.445
QB50P1 29 Jul 13:40:57 13:44:47 34° 258° (WSW) 13:48:36 145.935-145.965
POPSAT HIP 1 29 Jul 13:47:49 13:51:26 28° 258° (WSW) 13:55:04 437.405
JUGNU 29 Jul 13:48:59 13:51:58 14° 192° (SSW) 13:54:57 437.505
AO-85 29 Jul 13:51:13 13:56:04 35° 292° (WNW) 14:00:58 145.980
SPROUT 29 Jul 13:54:42 13:59:00 80° 102° (ESE) 14:03:18 437.525
AIST 1 29 Jul 14:01:48 14:06:03 72° 95° (E) 14:10:16
ESTCUBE 1 29 Jul 14:10:17 14:12:15 13° 282° (WNW) 14:14:14 437.505/2401.250
QB50P2 29 Jul 14:11:02 14:12:55 13° 258° (WSW) 14:14:48 145.880/145.840
CUBEBUG 1 29 Jul 14:11:48 14:14:55 19° 282° (WNW) 14:18:03 437.445
POLYITAN 1 29 Jul 14:13:46 14:15:33 12° 258° (WSW) 14:17:19 437.675
VELOX 1 29 Jul 14:16:17 14:19:32 20° 282° (WNW) 14:22:49 145.980
SRMSAT 29 Jul 14:18:07 14:23:14 30° 198° (SSW) 14:28:24 437.500
Oscar 19 29 Jul 14:30:10 14:34:36 30° 77° (ENE) 14:39:00 437.125/150
PHONESAT 2.4 29 Jul 14:31:41 14:34:01 20° 317° (NW) 14:36:22 2401.200-2431.200
TISAT 1 29 Jul 14:42:09 14:46:17 56° 102° (ESE) 14:50:26 437.305
JAS-2 29 Jul 14:53:56 15:00:01 33° 255° (WSW) 15:05:31 435.910
GONETS M04 29 Jul 15:05:54 15:12:02 21° 93° (E) 15:18:06
CUSAT 1 29 Jul 15:26:42 15:29:55 18° 91° (E) 15:33:42 437.405
SWISSCUBE 29 Jul 15:46:10 15:50:48 56° 102° (ESE) 15:55:27 437.505
AO-7 29 Jul 15:53:32 15:57:25 14° 73° (ENE) 16:01:16 29.400- 29.500
Cosmos 2499 29 Jul 16:05:22 16:13:40 48° 93° (E) 16:22:04 435.465 / 435.565
BEESAT 29 Jul 16:07:10 16:11:54 87° 282° (WNW) 16:16:40 436.000
Gurwin Techsat 1B 29 Jul 16:07:45 16:12:52 49° 257° (WSW) 16:17:59 435.225
ITAMSAT 1 29 Jul 16:08:58 16:13:51 40° 77° (ENE) 16:18:43 435.822/435.867
SRMSAT 29 Jul 16:09:56 16:13:01 14° 191° (S) 16:16:07 437.500
Oscar 19 29 Jul 16:10:33 16:13:38 16° 257° (WSW) 16:16:42 437.125/150
DANDE 29 Jul 16:11:48 16:13:35 13° 92° (E) 16:15:34 436.750
MOZHAYETS 4 29 Jul 16:30:33 16:32:11 12° 102° (ESE) 16:33:50
ITUPSAT 1 29 Jul 16:32:06 16:36:33 41° 282° (WNW) 16:41:01 437.325
GONETS M04 29 Jul 17:00:15 17:08:27 47° 273° (W) 17:16:38
CUSAT 1 29 Jul 17:07:38 17:11:30 25° 259° (W) 17:16:16 437.405
KKS-1 29 Jul 17:13:17 17:17:33 44° 103° (ESE) 17:21:49 437.445
RS-15 29 Jul 17:24:18 17:34:49 34° 68° (ENE) 17:44:55 29.354- 29.394
JUGNU 29 Jul 17:29:53 17:32:13 12° 171° (S) 17:34:34 437.505
AO-7 29 Jul 17:41:26 17:49:43 71° 254° (WSW) 17:58:02 29.400- 29.500
STARS 29 Jul 17:45:28 17:49:44 51° 102° (ESE) 17:54:02 437.465
BEESAT 3 29 Jul 17:50:08 17:54:01 90° 301° (WNW) 17:57:54 437.485
ITAMSAT 1 29 Jul 17:50:59 17:53:01 12° 257° (WSW) 17:55:03 435.822/435.867
DANDE 29 Jul 17:53:13 17:55:55 18° 258° (WSW) 17:59:09 436.750
CUBESAT XI-V 29 Jul 17:56:14 17:57:54 12° 102° (ESE) 17:59:34 437.345
Cosmos 2499 29 Jul 18:00:05 18:06:25 22° 273° (W) 18:12:52 435.465 / 435.565
BEESAT 2 29 Jul 18:01:08 18:04:57 51° 112° (ESE) 18:08:46 435.950
MOZHAYETS 4 29 Jul 18:05:05 18:09:04 31° 282° (WNW) 18:13:04
ISS 29 Jul 18:30:45 18:33:17 21° 126° (SE) 18:35:47 145.825
BRITE-PL 29 Jul 18:42:15 18:44:33 14° 80° (E) 18:46:47 437.365/2234.400
HORYU 2 29 Jul 18:49:39 18:54:04 63° 258° (WSW) 18:58:30 437.375
SO-50 29 Jul 18:50:17 18:54:00 26° 68° (ENE) 18:57:41 436.795
PCSat 29 Jul 18:56:28 19:01:53 90° 290° (WNW) 19:07:18 145.827
NOAA 18 29 Jul 19:02:29 19:06:02 17° 76° (ENE) 19:09:33 137.9125
LilacSat-2 29 Jul 19:13:23 19:16:00 17° 79° (ENE) 19:18:36 437.200
JUGNU 29 Jul 19:17:10 19:21:57 25° 162° (SSE) 19:26:45 437.505
Cubesat XI-IV 29 Jul 19:21:48 19:26:27 30° 77° (ENE) 19:31:04 437.490
CUBESAT XI-V 29 Jul 19:30:51 19:34:59 32° 282° (WNW) 19:39:09 437.345
GOMX 1 29 Jul 19:30:52 19:34:10 23° 79° (ENE) 19:37:26 467.674
RS-15 29 Jul 19:35:34 19:46:51 46° 250° (WSW) 19:57:45 29.354- 29.394
CUTE-I 29 Jul 19:44:01 19:49:17 57° 77° (ENE) 19:54:32 437.470
SRMSAT 29 Jul 19:51:00 19:53:41 13° 170° (S) 19:56:21 437.500
NOAA 15 29 Jul 19:56:07 20:01:22 71° 257° (WSW) 20:06:35 137.62
ISS 29 Jul 20:08:23 20:09:30 11° 306° (NW) 20:10:37 145.825
BRITE-PL 29 Jul 20:19:32 20:22:50 21° 257° (WSW) 20:26:01 437.365/2234.400
STRAND 1 29 Jul 20:22:04 20:26:30 31° 103° (ESE) 20:30:57 437.568
AIST 2 29 Jul 20:22:15 20:26:20 88° 292° (WNW) 20:30:25 435.215
HO-68 29 Jul 20:30:46 20:35:15 18° 75° (ENE) 20:39:44 435.675
SO-50 29 Jul 20:32:09 20:34:12 13° 248° (WSW) 20:36:14 436.795
O/OREOS (USA 219) 29 Jul 20:34:20 20:38:50 85° 288° (WNW) 20:43:17 437.305
NOAA 18 29 Jul 20:41:32 20:46:23 32° 257° (WSW) 20:51:15 137.9125
CINEMA 3 29 Jul 20:42:36 20:45:13 16° 77° (ENE) 20:47:53 145.822/145.860
LilacSat-2 29 Jul 20:47:59 20:50:02 14° 259° (WSW) 20:52:06 437.200
DOVE 4 29 Jul 20:48:00 20:52:08 74° 259° (WSW) 20:56:20 437.250
Cubesat XI-IV 29 Jul 21:02:41 21:06:14 18° 257° (WSW) 21:09:46 437.490
JUGNU 29 Jul 21:05:16 21:11:10 64° 159° (SSE) 21:17:06 437.505
GOMX 1 29 Jul 21:10:23 21:12:01 12° 258° (WSW) 21:13:39 467.674
CANX-2 29 Jul 21:15:54 21:20:02 44° 79° (ENE) 21:24:06 2200.000
PRISM 29 Jul 21:21:12 21:21:56 10° 103° (ESE) 21:22:42 437.425
CUTE 1.7 + AOD 2 29 Jul 21:28:42 21:32:56 58° 79° (E) 21:37:08 437.475
CUBEBUG 2 29 Jul 21:32:20 21:35:11 17° 78° (ENE) 21:38:04 437.445
YUBILEINY 29 Jul 21:33:52 21:40:52 27° 87° (E) 21:47:48 435.215
SRMSAT 29 Jul 21:38:38 21:43:34 26° 163° (SSE) 21:48:31 437.500
STRAND 1 29 Jul 22:02:30 22:05:24 15° 283° (WNW) 22:08:18 437.568
SEEDS 29 Jul 22:03:07 22:07:21 67° 259° (W) 22:11:33 437.485
COMPASS 1 29 Jul 22:10:03 22:14:17 85° 257° (WSW) 22:18:28 437.405
HO-68 29 Jul 22:15:46 22:22:37 49° 255° (WSW) 22:29:29 435.675
CINEMA 3 29 Jul 22:18:53 22:22:05 21° 259° (W) 22:25:23 145.822/145.860
Cosmos 2491 29 Jul 22:28:35 22:37:22 84° 93° (E) 22:46:04 435.465 / 435.565
FUNcube-1 29 Jul 22:32:02 22:36:07 37° 78° (ENE) 22:40:15 145.935
ZACube-1 29 Jul 22:34:18 22:38:31 44° 78° (ENE) 22:42:48 437.345
AAUSAT CUBESAT 2 29 Jul 22:35:57 22:39:59 46° 258° (WSW) 22:43:58 437.432
DELFI C3 29 Jul 22:38:21 22:40:47 16° 79° (ENE) 22:43:11 145.870
UWE-3 29 Jul 22:39:25 22:43:51 87° 253° (WSW) 22:48:24 435.000/436.395/437.385
PRISM 29 Jul 22:53:26 22:56:57 28° 282° (WNW) 23:00:31 437.425
JUGNU 29 Jul 22:54:32 23:00:15 47° 339° (NNW) 23:06:00 437.505
CUBEBUG 2 29 Jul 23:08:10 23:11:31 21° 259° (W) 23:14:56 437.445
Oscar 11 29 Jul 23:10:53 23:15:07 50° 258° (WSW) 23:19:20 145.826/435.025
UNISAT 6 29 Jul 23:12:25 23:15:27 18° 102° (ESE) 23:18:26 437.425
HUMSAT D 29 Jul 23:26:13 23:30:04 32° 78° (ENE) 23:33:54 437.325/437.525
SRMSAT 29 Jul 23:27:00 23:32:58 67° 159° (SSE) 23:38:56 437.500
YUBILEINY 29 Jul 23:29:20 23:37:15 39° 267° (W) 23:45:10 435.215
Cosmos 2504 29 Jul 23:33:00 23:40:20 61° 87° (E) 23:47:23 435.465 / 435.565
M-CUBED/EXP-1 PRIME 29 Jul 23:46:32 23:49:55 72° 256° (WSW) 23:53:30 437.505
ANTELSAT 29 Jul 23:49:24 23:53:47 63° 102° (ESE) 23:58:06 437.575/2403.000
AUBIESAT-1 30 Jul 00:10:27 00:13:39 36° 255° (WSW) 00:17:02 437.475
DELFI C3 30 Jul 00:12:41 00:15:22 17° 258° (WSW) 00:18:03 145.870
QB50P1 30 Jul 00:14:16 00:15:24 11° 102° (ESE) 00:16:33 145.935-145.965
POPSAT HIP 1 30 Jul 00:20:01 00:22:07 14° 102° (ESE) 00:24:14 437.405
AO-85 30 Jul 00:26:01 00:28:48 19° 67° (ENE) 00:31:33 145.980
TIGRISAT 30 Jul 00:30:36 00:34:38 35° 282° (WNW) 00:38:36 435.000
QB50P2 30 Jul 00:40:00 00:43:43 30° 102° (ESE) 00:47:27 145.880/145.840
POLYITAN 1 30 Jul 00:42:38 00:46:23 31° 102° (ESE) 00:50:07 437.675
JAS-2 30 Jul 00:44:29 00:46:00 11° 107° (ESE) 00:47:33 435.910
JUGNU 30 Jul 00:45:23 00:49:38 20° 345° (NNW) 00:53:52 437.505
CUBEBUG 1 30 Jul 00:45:32 00:49:04 25° 78° (ENE) 00:52:33 437.445
ESTCUBE 1 30 Jul 00:45:37 00:49:55 44° 78° (ENE) 00:54:11 437.505/2401.250
UNISAT 6 30 Jul 00:48:47 00:51:54 19° 282° (WNW) 00:54:58 437.425
50 SAT 30 Jul 00:50:33 00:53:33 23° 79° (ENE) 00:56:31 437.505
VELOX 1 30 Jul 00:51:26 00:55:01 25° 78° (ENE) 00:58:35 145.980
SRMSAT 30 Jul 01:16:30 01:22:13 45° 340° (NNW) 01:27:53 437.500
NANOSAT C BR1 30 Jul 01:22:40 01:26:53 70° 282° (WNW) 01:31:06 145.865
DUCHIFAT 1 30 Jul 01:25:35 01:29:48 69° 281° (W) 01:33:59 145.980
DX 1 30 Jul 01:25:53 01:30:06 52° 78° (ENE) 01:34:18 434.975-435.025
BUGSAT 1 30 Jul 01:28:59 01:33:00 42° 102° (ESE) 01:36:58 437.445
Cosmos 2504 30 Jul 01:31:24 01:33:15 11° 267° (W) 01:35:05 435.465 / 435.565
UKube-1 30 Jul 01:34:21 01:38:31 50° 78° (ENE) 01:42:40 .
AISAT 30 Jul 01:35:46 01:40:07 67° 258° (WSW) 01:44:27 437.250
QB50P1 30 Jul 01:47:16 01:50:55 28° 282° (WNW) 01:54:34 145.935-145.965
POPSAT HIP 1 30 Jul 01:54:15 01:57:38 23° 282° (WNW) 02:01:02 437.405
PHONESAT 2.4 30 Jul 01:58:22 02:01:11 35° 223° (SW) 02:04:01 2401.200-2431.200
SPROUT 30 Jul 02:02:08 02:06:23 80° 257° (WSW) 02:10:39 437.525
AO-85 30 Jul 02:07:20 02:08:56 12° 248° (WSW) 02:10:31 145.980
AIST 1 30 Jul 02:08:08 02:12:31 79° 266° (W) 02:16:56
QB50P2 30 Jul 02:18:46 02:19:15 10° 282° (WNW) 02:19:44 145.880/145.840
CUBEBUG 1 30 Jul 02:23:03 02:25:04 13° 258° (WSW) 02:27:05 437.445
JAS-2 30 Jul 02:24:25 02:30:21 63° 282° (WNW) 02:37:08 435.910
VELOX 1 30 Jul 02:29:02 02:31:13 14° 258° (WSW) 02:33:22 145.980
JUGNU 30 Jul 02:38:02 02:39:33 11° 354° (N) 02:41:04 437.505
TISAT 1 30 Jul 02:47:24 02:51:33 68° 79° (E) 02:55:43 437.305
Oscar 19 30 Jul 03:03:00 03:08:11 79° 103° (ESE) 03:13:24 437.125/150
Gurwin Techsat 1B 30 Jul 03:07:01 03:11:36 30° 103° (ESE) 03:16:12 435.225
SRMSAT 30 Jul 03:07:38 03:11:45 19° 345° (NNW) 03:15:51 437.500
ITUPSAT 1 30 Jul 03:17:53 03:21:20 20° 78° (ENE) 03:24:46 437.325
GONETS M04 30 Jul 03:37:20 03:45:35 44° 87° (E) 03:53:49
CUSAT 1 30 Jul 04:06:18 04:12:17 69° 96° (E) 04:16:45 437.405
SWISSCUBE 30 Jul 04:08:02 04:12:50 74° 258° (WSW) 04:17:36 437.505
Cosmos 2499 30 Jul 04:16:41 04:23:42 56° 87° (E) 04:30:33 435.465 / 435.565
AO-7 30 Jul 04:17:18 04:23:42 25° 107° (ESE) 04:30:04 29.400- 29.500
JUGNU 30 Jul 04:28:50 04:29:47 10° 5° (N) 04:30:44 437.505
BEESAT 30 Jul 04:29:18 04:33:51 44° 257° (WSW) 04:38:23 436.000
ITAMSAT 1 30 Jul 04:43:37 04:48:46 76° 282° (WNW) 04:53:57 435.822/435.867
MOZHAYETS 4 30 Jul 04:45:29 04:48:56 21° 78° (ENE) 04:52:22
Gurwin Techsat 1B 30 Jul 04:47:54 04:51:17 17° 283° (WNW) 04:54:39 435.225
DANDE 30 Jul 04:53:57 05:01:29 84° 95° (E) 05:07:15 436.750
ITUPSAT 1 30 Jul 04:55:15 04:58:54 22° 257° (WSW) 05:02:32 437.325
SRMSAT 30 Jul 05:00:40 05:01:49 11° 354° (N) 05:03:00 437.500
RS-15 30 Jul 05:07:27 05:15:54 25° 111° (ESE) 05:24:31 29.354- 29.394
KKS-1 30 Jul 05:25:38 05:30:02 68° 78° (ENE) 05:34:26 437.445
GONETS M04 30 Jul 05:35:25 05:41:59 24° 267° (W) 05:48:37
BEESAT 3 30 Jul 05:42:29 05:46:25 87° 240° (WSW) 05:50:20 437.485
PCSat 30 Jul 05:51:12 05:54:54 19° 70° (ENE) 05:58:35 145.827
BEESAT 2 30 Jul 05:54:36 05:58:29 56° 69° (ENE) 06:02:22 435.950
STARS 30 Jul 05:56:15 06:00:37 74° 78° (ENE) 06:04:59 437.465
ISS 30 Jul 06:05:14 06:06:46 13° 54° (NE) 06:08:20 145.825
AO-7 30 Jul 06:08:23 06:16:05 44° 286° (WNW) 06:23:50 29.400- 29.500
CUBESAT XI-V 30 Jul 06:12:50 06:16:18 21° 78° (ENE) 06:19:45 437.345
Cosmos 2499 30 Jul 06:14:09 06:16:24 12° 267° (W) 06:18:39 435.465 / 435.565
JUGNU 30 Jul 06:15:53 06:19:46 18° 14° (NNE) 06:23:38 437.505
MOZHAYETS 4 30 Jul 06:22:34 06:25:50 19° 258° (WSW) 06:29:04
SRMSAT 30 Jul 06:51:20 06:52:13 10° 5° (N) 06:53:06 437.500
NOAA 15 30 Jul 06:55:15 06:59:06 21° 103° (ESE) 07:02:58 137.62
SO-50 30 Jul 07:01:52 07:06:34 53° 112° (ESE) 07:11:18 436.795
HORYU 2 30 Jul 07:02:20 07:06:29 41° 282° (WNW) 07:10:40 437.375
BRITE-PL 30 Jul 07:05:24 07:10:29 42° 102° (ESE) 07:15:49 437.365/2234.400
LilacSat-2 30 Jul 07:08:28 07:10:32 14° 101° (ESE) 07:12:35 437.200
RS-15 30 Jul 07:17:12 07:27:46 54° 291° (WNW) 07:38:52 29.354- 29.394
PCSat 30 Jul 07:33:26 07:38:01 28° 251° (WSW) 07:42:37 145.827
DOVE 4 30 Jul 07:33:33 07:35:32 12° 102° (ESE) 07:37:31 437.250
ISS 30 Jul 07:40:39 07:43:00 18° 234° (SW) 07:45:21 145.825
NOAA 18 30 Jul 07:45:04 07:50:26 57° 104° (ESE) 07:55:48 137.9125
CUBESAT XI-V 30 Jul 07:50:12 07:53:25 19° 258° (WSW) 07:56:37 437.345
GOMX 1 30 Jul 07:52:13 07:57:35 59° 102° (ESE) 08:02:59 467.674
Cubesat XI-IV 30 Jul 08:00:37 08:05:55 88° 99° (E) 08:11:15 437.490
JUGNU 30 Jul 08:03:40 08:09:11 41° 20° (NNE) 08:14:41 437.505
AIST 2 30 Jul 08:20:30 08:24:38 70° 248° (WSW) 08:28:47 435.215
HO-68 30 Jul 08:23:17 08:26:50 14° 105° (ESE) 08:30:21 435.675
CUTE-I 30 Jul 08:23:29 08:28:34 49° 283° (WNW) 08:33:41 437.470
NOAA 15 30 Jul 08:34:19 08:38:35 25° 283° (WNW) 08:42:54 137.62
SRMSAT 30 Jul 08:38:22 08:42:19 18° 15° (NNE) 08:46:15 437.500
LilacSat-2 30 Jul 08:42:07 08:44:34 17° 281° (WNW) 08:47:02 437.200
O/OREOS (USA 219) 30 Jul 08:45:17 08:49:41 48° 256° (WSW) 08:54:07 437.305
BRITE-PL 30 Jul 08:45:59 08:48:43 14° 281° (W) 08:51:31 437.365/2234.400
STRAND 1 30 Jul 08:54:00 08:59:10 80° 77° (ENE) 09:04:19 437.568
CINEMA 3 30 Jul 08:57:46 09:01:59 30° 101° (E) 09:06:04 145.822/145.860
DOVE 4 30 Jul 09:07:57 09:12:56 43° 282° (WNW) 09:17:51 437.250
Cosmos 2491 30 Jul 09:08:47 09:14:32 19° 87° (E) 09:20:15 435.465 / 435.565
CANX-2 30 Jul 09:22:18 09:26:23 55° 101° (E) 09:30:31 2200.000
PRISM 30 Jul 09:23:34 09:24:51 11° 78° (ENE) 09:26:07 437.425
CUTE 1.7 + AOD 2 30 Jul 09:35:01 09:39:11 72° 101° (ESE) 09:43:23 437.475
CUBEBUG 2 30 Jul 09:44:18 09:47:54 24° 101° (E) 09:51:27 437.445
JUGNU 30 Jul 09:52:22 09:58:15 73° 201° (SSW) 10:04:07 437.505
YUBILEINY 30 Jul 10:05:51 10:14:18 53° 93° (E) 10:22:44 435.215
HO-68 30 Jul 10:07:11 10:14:10 58° 284° (WNW) 10:21:12 435.675
SEEDS 30 Jul 10:08:29 10:12:32 54° 281° (WNW) 10:16:36 437.485
COMPASS 1 30 Jul 10:14:15 10:18:22 73° 281° (W) 10:22:30 437.405
SRMSAT 30 Jul 10:26:17 10:31:51 43° 20° (NNE) 10:37:26 437.500
CINEMA 3 30 Jul 10:36:14 10:38:47 14° 283° (WNW) 10:41:18 145.822/145.860
DELFI C3 30 Jul 10:37:15 10:39:29 15° 102° (ESE) 10:41:45 145.870
AAUSAT CUBESAT 2 30 Jul 10:39:38 10:43:29 40° 281° (WNW) 10:47:22 437.432
FUNcube-1 30 Jul 10:41:42 10:45:50 50° 101° (E) 10:49:54 145.935
ZACube-1 30 Jul 10:44:21 10:48:35 61° 101° (ESE) 10:52:45 437.345
UWE-3 30 Jul 10:51:02 10:55:21 58° 281° (W) 10:59:33 435.000/436.395/437.385
PRISM 30 Jul 10:56:31 10:59:54 25° 258° (WSW) 11:03:16 437.425
Cosmos 2491 30 Jul 11:02:30 11:10:56 52° 267° (W) 11:19:27 435.465 / 435.565
TIGRISAT 30 Jul 11:08:23 11:11:03 15° 77° (ENE) 11:13:45 435.000
Oscar 11 30 Jul 11:19:47 11:23:44 37° 282° (WNW) 11:27:43 145.826/435.025
CUBEBUG 2 30 Jul 11:21:54 11:24:14 14° 283° (WNW) 11:26:32 437.445
UNISAT 6 30 Jul 11:24:36 11:28:29 28° 78° (ENE) 11:32:26 437.425
HUMSAT D 30 Jul 11:31:05 11:34:51 36° 102° (ESE) 11:38:36 437.325/437.525
